Tracking 30314 objects as of 20-Apr-2025
HD Live streaming from Space Station
objects crossing your sky now

SMDC ONE 1.1

Track SMDC ONE 1.1 now!
10-day predictions
SMDC ONE 1.1 is classified as:


NORAD ID: 38766
Int'l Code: 2012-048J
Perigee: 360.0 km
Apogee: 450.5 km
Inclination: 64.6 °
Period: 92.5 minutes
Semi major axis: 6776 km
RCS: Unknown
Launch date: September 13, 2012
Source: United States (US)
Launch site: AIR FORCE WESTERN TEST RANGE (AFWTR)
Your satellite tracking list
Your tracking list is empty




NASA's NSSDC Master Catalog

Two Line Element Set (TLE):
1 38766U 12048J   25109.02984961  .00093785  00000-0  11817-2 0  9993
2 38766  64.6380 332.8774 0066771 283.9679  75.4045 15.56400325 54852
Source of the keplerian elements: AFSPC